This demonstration page uses our WeatherBlox Daily Observations layout. Learn more.

Left ArrowRight Arrow

Hourly Observations for May 24, 2015

Temp ( °F °C ) Dew Point ( °F °C ) Humidity (%) Winds ( mph kmh ) Pressure ( in mb ) Visibility ( mi km ) Precip ( " mm )
12:15 am 00:15 Clear 55 13 48 9 77 77 SSW 5 7 30.42 1030 10 16 N/A
12:35 am 00:35 Clear 55 13 46 8 72 72 SSW 5 7 30.42 1030 10 16 N/A
12:55 am 00:55 Clear 54 12 48 9 82 82 SW 3 6 30.42 1030 10 16 N/A
1:15 am 01:15 Clear 55 13 48 9 77 77 SSW 5 7 30.42 1030 10 16 N/A
1:35 am 01:35 Clear 55 13 48 9 77 77 N N/A 30.42 1030 10 16 N/A
1:55 am 01:55 Clear 55 13 48 9 77 77 SE 5 7 30.42 1030 10 16 N/A
2:15 am 02:15 Clear 57 14 48 9 72 72 SSE 6 9 30.39 1029 10 16 N/A
2:35 am 02:35 Clear 54 12 48 9 82 82 S 3 6 30.42 1030 10 16 N/A
2:55 am 02:55 Clear 54 12 50 10 88 88 N N/A 30.42 1030 10 16 N/A
3:15 am 03:15 Clear 52 11 50 10 94 94 N N/A 30.42 1030 10 16 N/A
3:35 am 03:35 Clear 52 11 50 10 94 94 N N/A 30.42 1030 10 16 N/A
3:55 am 03:55 Clear 50 10 48 9 94 94 N N/A 30.42 1030 10 16 N/A
4:15 am 04:15 Clear 50 10 48 9 94 94 N N/A 30.42 1030 10 16 N/A
4:35 am 04:35 Clear 50 10 48 9 94 94 NNW 3 6 30.42 1030 10 16 N/A
4:55 am 04:55 Clear 50 10 50 10 100 100 N N/A 30.42 1030 10 16 N/A
5:15 am 05:15 Clear 50 10 50 10 100 100 N N/A 30.42 1030 10 16 N/A
5:35 am 05:35 Clear 48 9 48 9 100 100 W 3 6 30.42 1030 10 16 N/A
5:55 am 05:55 Sunny 50 10 48 9 94 94 S 3 6 30.42 1030 10 16 N/A
6:15 am 06:15 Sunny 48 9 48 9 100 100 N N/A 30.42 1030 10 16 N/A
6:35 am 06:35 Sunny 50 10 48 9 94 94 N N/A 30.42 1030 10 16 N/A
6:55 am 06:55 Sunny 50 10 50 10 100 100 N N/A 30.42 1030 10 16 N/A
7:15 am 07:15 Sunny 54 12 52 11 94 94 N N/A 30.42 1030 10 16 N/A
7:35 am 07:35 Sunny 55 13 52 11 88 88 N N/A 30.42 1030 10 16 N/A
7:55 am 07:55 Sunny 57 14 52 11 82 82 SSW 3 6 30.39 1029 10 16 N/A
8:15 am 08:15 Sunny 59 15 54 12 82 82 S 5 7 30.39 1029 10 16 N/A
8:35 am 08:35 Sunny 61 16 54 12 77 77 SSW 9 15 30.39 1029 10 16 N/A
8:55 am 08:55 Sunny 63 17 54 12 73 73 S 5 7 30.39 1029 10 16 N/A
9:15 am 09:15 Sunny 64 18 55 13 73 73 S 5 7 30.39 1029 10 16 N/A
9:35 am 09:35 Sunny 64 18 55 13 73 73 N N/A 30.39 1029 10 16 N/A
9:55 am 09:55 Sunny 68 20 55 13 64 64 S 3 6 30.39 1029 10 16 N/A
10:15 am 10:15 Sunny 70 21 55 13 60 60 N N/A 30.39 1029 10 16 N/A
10:35 am 10:35 Sunny 70 21 55 13 60 60 N N/A 30.39 1029 10 16 N/A
10:55 am 10:55 Sunny 72 22 57 14 61 61 N N/A 30.36 1028 10 16 N/A
11:15 am 11:15 Sunny 72 22 55 13 57 57 SE 3 6 30.36 1028 10 16 N/A
11:35 am 11:35 Sunny 73 23 57 14 57 57 N N/A 30.36 1028 10 16 N/A
11:55 am 11:55 Sunny 73 23 57 14 57 57 SSE 5 7 30.36 1028 10 16 N/A
12:15 pm 12:15 Sunny 77 25 55 13 47 47 S 5 7 30.36 1028 10 16 N/A
12:35 pm 12:35 Sunny 77 25 59 15 54 54 WNW 5 7 30.36 1028 10 16 N/A
12:55 pm 12:55 Sunny 79 26 59 15 51 51 W 5 7 30.36 1028 10 16 N/A
1:15 pm 13:15 Sunny 79 26 54 12 42 42 SSW 7 11 30.36 1028 10 16 N/A
1:35 pm 13:35 Sunny 79 26 52 11 39 39 SE 3 6 30.33 1027 10 16 N/A
1:55 pm 13:55 Sunny 79 26 52 11 39 39 SSW 7 11 30.33 1027 10 16 N/A
2:15 pm 14:15 Sunny 81 27 50 10 34 34 N N/A 30.33 1027 10 16 N/A
2:35 pm 14:35 Sunny 82 28 46 8 28 28 SW 5 7 30.33 1027 10 16 N/A
2:55 pm 14:55 Sunny 81 27 46 8 30 30 N N/A 30.30 1026 10 16 N/A
3:15 pm 15:15 Sunny 82 28 46 8 28 28 S 9 15 30.30 1026 10 16 N/A
3:35 pm 15:35 Sunny 82 28 46 8 28 28 N 5 7 30.30 1026 10 16 N/A
3:55 pm 15:55 Sunny 84 29 46 8 27 27 SW 7 11 30.27 1025 10 16 N/A
4:15 pm 16:15 Sunny 84 29 50 10 31 31 SSW 7 11 30.27 1025 10 16 N/A
4:35 pm 16:35 Sunny 82 28 50 10 32 32 WSW 6 9 30.27 1025 10 16 N/A
4:55 pm 16:55 Sunny 82 28 52 11 35 35 W 8 13 30.27 1025 10 16 N/A
5:15 pm 17:15 Sunny 82 28 54 12 37 37 SSW 8 13 30.27 1025 10 16 N/A
5:35 pm 17:35 Sunny 82 28 54 12 37 37 SSW 10 17 30.27 1025 10 16 N/A
5:55 pm 17:55 Sunny 82 28 54 12 37 37 SW 7 11 30.27 1025 10 16 N/A
6:15 pm 18:15 Sunny 82 28 54 12 37 37 SSW 12 19 30.27 1025 10 16 N/A
6:35 pm 18:35 Sunny 82 28 55 13 40 40 SSW 9 15 30.27 1025 10 16 N/A
6:55 pm 18:55 Sunny 81 27 57 14 45 45 SSW 9 15 30.27 1025 10 16 N/A
7:15 pm 19:15 Sunny 81 27 57 14 45 45 SSW 12 19 30.27 1025 10 16 N/A
7:35 pm 19:35 Sunny 81 27 57 14 45 45 S 6 9 30.27 1025 10 16 N/A
7:55 pm 19:55 Sunny 79 26 57 14 48 48 S 5 7 30.27 1025 10 16 N/A
8:15 pm 20:15 Sunny 79 26 57 14 48 48 SSE 5 7 30.24 1024 10 16 N/A
8:35 pm 20:35 Clear 79 26 57 14 48 48 SSE 6 9 30.24 1024 10 16 N/A
8:55 pm 20:55 Clear 77 25 57 14 51 51 S 7 11 30.24 1024 10 16 N/A
9:15 pm 21:15 Clear 75 24 57 14 54 54 SSW 12 19 30.27 1025 10 16 N/A
9:35 pm 21:35 Clear 73 23 59 15 61 61 S 7 11 30.27 1025 10 16 N/A
9:55 pm 21:55 Clear 73 23 59 15 61 61 S 7 11 30.27 1025 10 16 N/A
10:15 pm 22:15 Clear 72 22 59 15 65 65 S 8 13 30.27 1025 10 16 N/A
10:35 pm 22:35 Clear 72 22 59 15 65 65 S 6 9 30.27 1025 10 16 N/A
10:55 pm 22:55 Clear 72 22 59 15 65 65 S 6 9 30.27 1025 10 16 N/A
11:15 pm 23:15 Clear 72 22 59 15 65 65 S 7 11 30.27 1025 10 16 N/A
11:35 pm 23:35 Clear 70 21 59 15 69 69 S 6 9 30.27 1025 10 16 N/A
11:55 pm 23:55 Clear 70 21 59 15 69 69 S 7 11 30.27 1025 10 16 N/A

Powered by AerisWeather